EZS56RW LFSB-GCFV

Flight info

Callsign EZS56RW
Flight time 4h 14m
Altitude 33000
Route DCT MOROK T14 GILIR DCT TUROM DCT NINTU/N0455F350 DCT MEBAK DCT REPSI DCT LERGA DCT MINSO DCT NARAK DCT AGN DCT PIPOR L866 PPN DCT MIRPO DCT DGO DCT NEA L14 ADINO DCT RAKOD DCT ELVAR DCT DUZOP/N0453F370 DCT NOKSO DCT TAKAV DCT VEDOD UN857 TERTO TERTO8S
Aircraft A320/M-SDE3FGHIRWY/LB1

Departure

Time 2026-05-07 16:45
Airport EuroAirport Basel–Mulhouse–Freiburg (LFSB)

Arrival

Time 2026-05-07 20:59
Airport Fuerteventura Airport (GCFV)
Time Latitude Longitude Altitude Speed Heading
2026-05-07 16:13 47.59978 7.52719 896 ft 0 kts 111°
2026-05-07 16:35 47.59985 7.52686 893 ft 4 kts 99°
2026-05-07 16:36 47.59987 7.52646 893 ft 4 kts 89°
2026-05-07 16:36 47.59988 7.52617 893 ft 2 kts 152°
2026-05-07 16:36 47.59990 7.52616 893 ft 0 kts 155°
2026-05-07 16:38 47.59984 7.52620 893 ft 4 kts 154°
2026-05-07 16:38 47.59930 7.52658 893 ft 13 kts 155°
2026-05-07 16:39 47.59823 7.52732 893 ft 19 kts 155°
2026-05-07 16:39 47.59711 7.52810 893 ft 17 kts 155°
2026-05-07 16:39 47.59605 7.52884 893 ft 20 kts 155°
2026-05-07 16:39 47.59509 7.52917 894 ft 11 kts 220°
2026-05-07 16:40 47.59476 7.52821 894 ft 13 kts 244°
2026-05-07 16:40 47.59421 7.52649 897 ft 23 kts 244°
2026-05-07 16:40 47.59346 7.52415 893 ft 26 kts 245°
2026-05-07 16:40 47.59267 7.52168 893 ft 27 kts 242°
2026-05-07 16:41 47.59142 7.51963 891 ft 27 kts 226°
2026-05-07 16:41 47.59005 7.51759 891 ft 28 kts 225°
2026-05-07 16:41 47.58893 7.51677 890 ft 10 kts 168°
2026-05-07 16:41 47.58885 7.51679 890 ft 0 kts 167°
2026-05-07 16:42 47.58870 7.51685 889 ft 9 kts 167°
2026-05-07 16:42 47.58800 7.51725 887 ft 5 kts 115°
2026-05-07 16:43 47.58802 7.51747 887 ft 0 kts 75°
2026-05-07 16:44 47.58802 7.51748 887 ft 4 kts 75°
2026-05-07 16:44 47.58877 7.52223 891 ft 87 kts 77°
2026-05-07 16:44 47.59074 7.53439 902 ft 151 kts 74°
2026-05-07 16:45 47.59318 7.55018 1566 ft 154 kts 74°
2026-05-07 16:45 47.59542 7.56561 2403 ft 153 kts 74°
2026-05-07 16:45 47.59774 7.58158 3055 ft 168 kts 76°
2026-05-07 16:45 47.60007 7.59922 3735 ft 179 kts 77°
2026-05-07 16:46 47.60224 7.61769 4490 ft 186 kts 78°
2026-05-07 16:46 47.60413 7.63708 5024 ft 198 kts 80°
2026-05-07 16:46 47.60572 7.65824 5272 ft 216 kts 82°
2026-05-07 16:46 47.60728 7.68155 5461 ft 240 kts 83°
2026-05-07 16:47 47.60837 7.70767 5740 ft 266 kts 95°
2026-05-07 16:47 47.60178 7.73347 6173 ft 280 kts 131°
2026-05-07 16:47 47.58609 7.74993 6868 ft 279 kts 165°
2026-05-07 16:47 47.56711 7.75258 7641 ft 275 kts 193°
2026-05-07 16:48 47.54979 7.74182 8442 ft 271 kts 220°
2026-05-07 16:48 47.53825 7.72008 9183 ft 273 kts 248°
2026-05-07 16:48 47.53373 7.69273 9948 ft 276 kts 258°
2026-05-07 16:48 47.53028 7.66528 10368 ft 291 kts 259°
2026-05-07 16:49 47.52641 7.63426 10546 ft 314 kts 258°
2026-05-07 16:49 47.52225 7.60121 10682 ft 337 kts 258°
2026-05-07 16:49 47.51778 7.56614 10893 ft 354 kts 258°
2026-05-07 16:49 47.51313 7.52995 11427 ft 361 kts 258°
2026-05-07 16:50 47.50839 7.49332 12072 ft 364 kts 258°
2026-05-07 16:50 47.50360 7.45634 12698 ft 368 kts 258°
2026-05-07 16:50 47.49875 7.41906 13323 ft 371 kts 258°
2026-05-07 16:50 47.49380 7.38131 13923 ft 375 kts 258°
2026-05-07 16:51 47.48879 7.34327 14456 ft 378 kts 258°
2026-05-07 16:51 47.48375 7.30497 14993 ft 381 kts 258°
2026-05-07 16:51 47.47869 7.26630 15513 ft 384 kts 258°
2026-05-07 16:51 47.47360 7.22745 16013 ft 387 kts 258°
2026-05-07 16:52 47.46843 7.18821 16528 ft 390 kts 258°
2026-05-07 16:52 47.46322 7.14870 17028 ft 393 kts 258°
2026-05-07 16:52 47.45801 7.10945 17512 ft 396 kts 258°
2026-05-07 16:52 47.45261 7.06890 18017 ft 398 kts 258°
2026-05-07 16:53 47.44722 7.02859 18486 ft 401 kts 258°
2026-05-07 16:53 47.44188 6.98860 18915 ft 403 kts 258°
2026-05-07 16:53 47.43641 6.94794 19333 ft 405 kts 258°
2026-05-07 16:53 47.43267 6.92029 19625 ft 407 kts 258°
2026-05-07 16:54 47.42525 6.86578 20173 ft 410 kts 258°
2026-05-07 16:54 47.41961 6.82437 20588 ft 412 kts 258°
2026-05-07 16:54 47.41396 6.78278 20983 ft 414 kts 258°
2026-05-07 16:54 47.41021 6.75508 21247 ft 416 kts 258°
2026-05-07 16:55 47.40046 6.69968 21757 ft 418 kts 249°
2026-05-07 16:55 47.39258 6.67379 21993 ft 420 kts 242°
2026-05-07 16:55 47.37049 6.62614 22490 ft 424 kts 229°
2026-05-07 16:55 47.35678 6.60551 22712 ft 426 kts 223°
2026-05-07 16:56 47.33416 6.57699 23080 ft 429 kts 221°
2026-05-07 16:56 47.31135 6.54849 23423 ft 431 kts 221°
2026-05-07 16:56 47.26534 6.49095 24044 ft 435 kts 221°
2026-05-07 16:57 47.24213 6.46188 24348 ft 437 kts 222°
2026-05-07 16:57 47.21896 6.43289 24646 ft 438 kts 222°
2026-05-07 16:57 47.19568 6.40381 24921 ft 440 kts 221°
2026-05-07 16:57 47.17232 6.37463 25205 ft 441 kts 222°
2026-05-07 16:58 47.14896 6.34545 25485 ft 442 kts 222°
2026-05-07 16:58 47.12545 6.31615 25761 ft 443 kts 222°
2026-05-07 16:58 47.10218 6.28723 26028 ft 445 kts 222°
2026-05-07 16:58 47.07852 6.25789 26298 ft 446 kts 222°
2026-05-07 16:59 47.05447 6.22813 26564 ft 448 kts 222°
2026-05-07 16:59 47.03098 6.19908 26870 ft 447 kts 222°
2026-05-07 16:59 47.00722 6.16974 27255 ft 445 kts 222°
2026-05-07 16:59 46.98356 6.14054 27661 ft 443 kts 222°
2026-05-07 17:00 46.96002 6.11158 28098 ft 441 kts 223°
2026-05-07 17:00 46.93659 6.08281 28500 ft 439 kts 223°
2026-05-07 17:00 46.91322 6.05413 28890 ft 437 kts 223°
2026-05-07 17:00 46.88997 6.02555 29282 ft 436 kts 223°
2026-05-07 17:01 46.86680 5.99709 29680 ft 434 kts 223°
2026-05-07 17:01 46.84246 5.97083 30047 ft 437 kts 214°
2026-05-07 17:01 46.81538 5.95031 30361 ft 440 kts 206°
2026-05-07 17:01 46.78709 5.93341 30707 ft 438 kts 206°
2026-05-07 17:02 46.75892 5.91657 31046 ft 437 kts 206°
2026-05-07 17:02 46.73089 5.89975 31366 ft 436 kts 206°
2026-05-07 17:02 46.70284 5.88290 31679 ft 435 kts 206°
2026-05-07 17:02 46.67493 5.86613 31983 ft 434 kts 206°
2026-05-07 17:03 46.64704 5.84937 32286 ft 433 kts 206°
2026-05-07 17:03 46.61922 5.83268 32591 ft 432 kts 206°
2026-05-07 17:03 46.59142 5.81605 32891 ft 431 kts 206°
2026-05-07 17:03 46.56369 5.79953 33209 ft 430 kts 206°
2026-05-07 17:04 46.53603 5.78307 33506 ft 430 kts 206°
2026-05-07 17:04 46.50839 5.76661 33823 ft 429 kts 206°
2026-05-07 17:04 46.48082 5.75021 34104 ft 428 kts 206°
2026-05-07 17:04 46.45329 5.73383 34352 ft 427 kts 206°
2026-05-07 17:05 46.42580 5.71747 34566 ft 427 kts 206°
2026-05-07 17:05 46.39831 5.70114 34811 ft 426 kts 206°
2026-05-07 17:05 46.37080 5.68484 34968 ft 427 kts 206°
2026-05-07 17:05 46.34360 5.66875 35015 ft 429 kts 206°
2026-05-07 17:06 46.28823 5.63607 35001 ft 430 kts 206°
2026-05-07 17:06 46.23282 5.60338 35000 ft 431 kts 206°
2026-05-07 17:07 46.17792 5.56944 35007 ft 426 kts 213°
2026-05-07 17:07 46.13202 5.51742 35007 ft 418 kts 231°
2026-05-07 17:08 46.09796 5.44995 34986 ft 416 kts 237°
2026-05-07 17:08 46.06507 5.38141 34998 ft 416 kts 237°
2026-05-07 17:09 46.03204 5.31299 34985 ft 416 kts 236°
2026-05-07 17:09 45.99899 5.24451 34984 ft 416 kts 236°
2026-05-07 17:10 45.96596 5.17614 34979 ft 416 kts 236°
2026-05-07 17:10 45.93284 5.10782 34977 ft 417 kts 236°
2026-05-07 17:11 45.89959 5.03965 34974 ft 417 kts 236°
2026-05-07 17:11 45.86635 4.97151 34992 ft 417 kts 236°
2026-05-07 17:12 45.83303 4.90329 34980 ft 417 kts 236°
2026-05-07 17:12 45.79965 4.83515 34988 ft 417 kts 236°
2026-05-07 17:13 45.77186 4.77854 34989 ft 417 kts 236°
2026-05-07 17:13 45.73293 4.69960 34992 ft 418 kts 236°
2026-05-07 17:14 45.69943 4.63161 34989 ft 418 kts 236°
2026-05-07 17:14 45.66589 4.56360 34981 ft 418 kts 235°
2026-05-07 17:15 45.63231 4.49575 34988 ft 418 kts 235°
2026-05-07 17:15 45.59864 4.42795 34991 ft 418 kts 235°
2026-05-07 17:16 45.56494 4.36029 34991 ft 418 kts 235°
2026-05-07 17:16 45.53116 4.29271 34994 ft 418 kts 235°
2026-05-07 17:17 45.49738 4.22513 34987 ft 418 kts 235°
2026-05-07 17:17 45.46351 4.15765 34988 ft 419 kts 234°
2026-05-07 17:18 45.42956 4.09032 34986 ft 419 kts 234°
2026-05-07 17:18 45.39577 4.02343 34978 ft 419 kts 234°
2026-05-07 17:19 45.36152 3.95564 34976 ft 419 kts 234°
2026-05-07 17:19 45.32774 3.88888 34977 ft 419 kts 234°
2026-05-07 17:20 45.29369 3.82161 34974 ft 419 kts 234°
2026-05-07 17:20 45.25954 3.75460 34980 ft 419 kts 234°
2026-05-07 17:21 45.22574 3.68712 34957 ft 419 kts 235°
2026-05-07 17:21 45.19253 3.61908 34958 ft 419 kts 235°
2026-05-07 17:22 45.15928 3.55125 34955 ft 419 kts 235°
2026-05-07 17:22 45.12602 3.48404 34949 ft 419 kts 235°
2026-05-07 17:23 45.09257 3.41660 34957 ft 418 kts 235°
2026-05-07 17:23 45.05910 3.34920 34962 ft 418 kts 235°
2026-05-07 17:24 45.02560 3.28194 34959 ft 418 kts 235°
2026-05-07 17:24 44.99204 3.21482 34960 ft 418 kts 235°
2026-05-07 17:25 44.95847 3.14773 34960 ft 418 kts 234°
2026-05-07 17:25 44.92484 3.08087 34961 ft 417 kts 234°
2026-05-07 17:26 44.89114 3.01413 34974 ft 417 kts 234°
2026-05-07 17:26 44.85756 2.94745 34965 ft 417 kts 234°
2026-05-07 17:27 44.82470 2.88015 34968 ft 417 kts 237°
2026-05-07 17:27 44.79366 2.81183 34964 ft 417 kts 237°
2026-05-07 17:28 44.76251 2.74279 34965 ft 417 kts 237°
2026-05-07 17:28 44.73106 2.67427 34963 ft 417 kts 237°
2026-05-07 17:29 44.69930 2.60595 34965 ft 417 kts 236°
2026-05-07 17:29 44.66742 2.53774 34964 ft 418 kts 236°
2026-05-07 17:30 44.63558 2.46947 34958 ft 418 kts 237°
2026-05-07 17:30 44.60369 2.40114 34961 ft 418 kts 236°
2026-05-07 17:31 44.57173 2.33284 34952 ft 418 kts 236°
2026-05-07 17:31 44.54006 2.26524 34969 ft 418 kts 236°
2026-05-07 17:32 44.50809 2.19722 34962 ft 418 kts 236°
2026-05-07 17:32 44.48120 2.14032 34959 ft 418 kts 236°
2026-05-07 17:33 44.44384 2.06129 34956 ft 418 kts 236°
2026-05-07 17:33 44.41172 1.99333 34952 ft 419 kts 236°
2026-05-07 17:34 44.37955 1.92551 34944 ft 418 kts 236°
2026-05-07 17:34 44.34730 1.85779 34951 ft 419 kts 236°
2026-05-07 17:35 44.31495 1.79015 34945 ft 419 kts 236°
2026-05-07 17:35 44.28271 1.72233 34941 ft 419 kts 236°
2026-05-07 17:36 44.25137 1.65402 34938 ft 419 kts 237°
2026-05-07 17:36 44.22011 1.58525 34937 ft 419 kts 237°
2026-05-07 17:37 44.18859 1.51662 34951 ft 420 kts 236°
2026-05-07 17:37 44.15698 1.44822 34941 ft 420 kts 236°
2026-05-07 17:38 44.12555 1.38034 34935 ft 420 kts 236°
2026-05-07 17:38 44.09377 1.31196 34932 ft 420 kts 236°
2026-05-07 17:39 44.06196 1.24375 34932 ft 420 kts 236°
2026-05-07 17:39 44.03010 1.17553 34934 ft 421 kts 236°
2026-05-07 17:40 43.99823 1.10731 34939 ft 421 kts 236°
2026-05-07 17:40 43.96628 1.03898 34925 ft 422 kts 236°
2026-05-07 17:41 43.93420 0.97075 34923 ft 422 kts 236°
2026-05-07 17:41 43.90207 0.90268 34930 ft 422 kts 236°
2026-05-07 17:42 43.87057 0.83453 34926 ft 423 kts 238°
2026-05-07 17:42 43.84063 0.76437 34931 ft 423 kts 239°
2026-05-07 17:43 43.81101 0.69391 34927 ft 424 kts 238°
2026-05-07 17:43 43.78609 0.63550 34926 ft 424 kts 238°
2026-05-07 17:44 43.75571 0.56549 34921 ft 424 kts 238°
2026-05-07 17:44 43.72523 0.49556 34921 ft 425 kts 238°
2026-05-07 17:45 43.69474 0.42557 34924 ft 425 kts 238°
2026-05-07 17:45 43.66425 0.35555 34934 ft 425 kts 238°
2026-05-07 17:46 43.63372 0.28557 34931 ft 426 kts 238°
2026-05-07 17:46 43.60305 0.21555 34927 ft 426 kts 238°
2026-05-07 17:47 43.57234 0.14575 34926 ft 426 kts 237°
2026-05-07 17:47 43.54155 0.07591 34927 ft 426 kts 237°
2026-05-07 17:48 43.51095 0.00653 34928 ft 426 kts 238°
2026-05-07 17:48 43.48021 -0.06325 34936 ft 426 kts 237°
2026-05-07 17:49 43.44931 -0.13304 34923 ft 426 kts 237°
2026-05-07 17:49 43.41838 -0.20265 34915 ft 426 kts 237°
2026-05-07 17:50 43.38732 -0.27211 34909 ft 426 kts 237°
2026-05-07 17:50 43.35622 -0.34159 34907 ft 426 kts 237°
2026-05-07 17:51 43.32522 -0.41099 34911 ft 426 kts 237°
2026-05-07 17:51 43.29437 -0.47995 34913 ft 426 kts 237°
2026-05-07 17:52 43.26303 -0.54960 34919 ft 426 kts 237°
2026-05-07 17:52 43.23200 -0.61834 34926 ft 426 kts 237°
2026-05-07 17:53 43.20079 -0.68743 34929 ft 426 kts 237°
2026-05-07 17:53 43.16952 -0.75644 34942 ft 426 kts 237°
2026-05-07 17:54 43.13821 -0.82541 34941 ft 427 kts 237°
2026-05-07 17:54 43.10682 -0.89447 34938 ft 427 kts 237°
2026-05-07 17:55 43.07536 -0.96352 34940 ft 428 kts 237°
2026-05-07 17:55 43.04380 -1.03249 34938 ft 428 kts 237°
2026-05-07 17:56 43.01215 -1.10145 34934 ft 428 kts 237°
2026-05-07 17:56 42.98052 -1.17041 34952 ft 428 kts 237°
2026-05-07 17:57 42.95420 -1.22754 34946 ft 428 kts 237°
2026-05-07 17:57 42.91711 -1.30782 34941 ft 428 kts 237°
2026-05-07 17:58 42.88538 -1.37648 34926 ft 428 kts 237°
2026-05-07 17:58 42.85359 -1.44506 34920 ft 428 kts 237°
2026-05-07 17:59 42.82197 -1.51306 34915 ft 428 kts 237°
2026-05-07 17:59 42.79007 -1.58146 34926 ft 427 kts 238°
2026-05-07 18:00 42.75821 -1.64963 34923 ft 427 kts 238°
2026-05-07 18:00 42.72995 -1.72042 34922 ft 426 kts 250°
2026-05-07 18:01 42.71258 -1.79752 34923 ft 426 kts 252°
2026-05-07 18:01 42.69514 -1.87454 34921 ft 426 kts 252°
2026-05-07 18:02 42.66884 -1.98995 34945 ft 426 kts 252°
2026-05-07 18:03 42.65135 -2.06665 34944 ft 425 kts 252°
2026-05-07 18:03 42.63393 -2.14286 34945 ft 425 kts 252°
2026-05-07 18:04 42.61606 -2.21933 34945 ft 424 kts 252°
2026-05-07 18:04 42.59750 -2.29528 34944 ft 424 kts 252°
2026-05-07 18:05 42.57885 -2.37120 34938 ft 424 kts 252°
2026-05-07 18:05 42.56027 -2.44705 34936 ft 423 kts 252°
2026-05-07 18:06 42.54178 -2.52277 34936 ft 423 kts 252°
2026-05-07 18:06 42.52321 -2.59848 34932 ft 423 kts 252°
2026-05-07 18:07 42.50454 -2.67405 34929 ft 423 kts 252°
2026-05-07 18:07 42.48604 -2.74907 34935 ft 422 kts 252°
2026-05-07 18:08 42.46735 -2.82450 34936 ft 422 kts 252°
2026-05-07 18:08 42.44720 -2.89895 34934 ft 422 kts 246°
2026-05-07 18:09 42.42260 -2.97113 34934 ft 422 kts 246°
2026-05-07 18:09 42.39805 -3.04332 34931 ft 422 kts 247°
2026-05-07 18:10 42.37347 -3.11537 34919 ft 422 kts 247°
2026-05-07 18:10 42.34881 -3.18742 34909 ft 422 kts 248°
2026-05-07 18:11 42.32406 -3.25950 34920 ft 422 kts 248°
2026-05-07 18:11 42.29952 -3.33101 34927 ft 422 kts 248°
2026-05-07 18:12 42.27876 -3.39122 34928 ft 422 kts 248°
2026-05-07 18:12 42.24985 -3.47472 34941 ft 422 kts 248°
2026-05-07 18:13 42.22497 -3.54632 34948 ft 421 kts 248°
2026-05-07 18:13 42.20015 -3.61770 34947 ft 420 kts 248°
2026-05-07 18:14 42.17529 -3.68907 34932 ft 420 kts 248°
2026-05-07 18:14 42.15046 -3.76029 34930 ft 420 kts 248°
2026-05-07 18:15 42.12571 -3.83103 34897 ft 419 kts 249°
2026-05-07 18:15 42.10083 -3.90197 34914 ft 418 kts 249°
2026-05-07 18:16 42.07589 -3.97266 34923 ft 418 kts 249°
2026-05-07 18:16 42.05090 -4.04333 34926 ft 417 kts 249°
2026-05-07 18:17 42.02190 -4.11118 34924 ft 424 kts 236°
2026-05-07 18:17 41.97874 -4.16646 34919 ft 431 kts 226°
2026-05-07 18:18 41.93346 -4.21938 34916 ft 431 kts 227°
2026-05-07 18:18 41.88826 -4.27230 34903 ft 431 kts 227°
2026-05-07 18:19 41.84304 -4.32512 34911 ft 431 kts 227°
2026-05-07 18:19 41.79776 -4.37786 34915 ft 431 kts 227°
2026-05-07 18:20 41.75254 -4.43046 34915 ft 430 kts 227°
2026-05-07 18:20 41.70734 -4.48295 34917 ft 430 kts 227°
2026-05-07 18:21 41.66192 -4.53559 34901 ft 430 kts 228°
2026-05-07 18:21 41.61716 -4.58732 34894 ft 429 kts 228°
2026-05-07 18:22 41.57207 -4.63933 34923 ft 428 kts 228°
2026-05-07 18:22 41.52706 -4.69111 34927 ft 427 kts 228°
2026-05-07 18:23 41.48213 -4.74281 34923 ft 426 kts 228°
2026-05-07 18:23 41.43723 -4.79436 34910 ft 425 kts 228°
2026-05-07 18:24 41.39242 -4.84560 34910 ft 424 kts 228°
2026-05-07 18:24 41.34758 -4.89677 34916 ft 424 kts 228°
2026-05-07 18:25 41.30281 -4.94777 34915 ft 423 kts 228°
2026-05-07 18:25 41.25815 -4.99862 34906 ft 422 kts 228°
2026-05-07 18:26 41.21353 -5.04946 34893 ft 421 kts 228°
2026-05-07 18:26 41.16904 -5.09995 34906 ft 420 kts 228°
2026-05-07 18:27 41.12461 -5.15027 34913 ft 420 kts 228°
2026-05-07 18:27 41.08015 -5.20044 34911 ft 419 kts 227°
2026-05-07 18:28 41.03591 -5.25014 34913 ft 419 kts 227°
2026-05-07 18:28 40.99148 -5.30007 34896 ft 419 kts 227°
2026-05-07 18:29 40.94707 -5.34997 34885 ft 419 kts 227°
2026-05-07 18:29 40.90265 -5.39985 34896 ft 419 kts 227°
2026-05-07 18:30 40.85819 -5.44957 34899 ft 419 kts 227°
2026-05-07 18:30 40.81369 -5.49917 34904 ft 418 kts 227°
2026-05-07 18:31 40.76922 -5.54876 34857 ft 418 kts 227°
2026-05-07 18:31 40.73230 -5.59000 34867 ft 418 kts 227°
2026-05-07 18:32 40.68061 -5.64742 34876 ft 418 kts 226°
2026-05-07 18:32 40.64331 -5.68871 34879 ft 417 kts 226°
2026-05-07 18:33 40.59909 -5.73770 34870 ft 417 kts 226°
2026-05-07 18:33 40.55465 -5.78680 34879 ft 417 kts 226°
2026-05-07 18:34 40.51020 -5.83583 34883 ft 416 kts 226°
2026-05-07 18:34 40.46578 -5.88480 34885 ft 416 kts 226°
2026-05-07 18:35 40.42168 -5.93326 34885 ft 416 kts 226°
2026-05-07 18:35 40.37727 -5.98204 34878 ft 416 kts 226°
2026-05-07 18:36 40.33290 -6.03068 34868 ft 415 kts 226°
2026-05-07 18:36 40.28848 -6.07927 34877 ft 416 kts 226°
2026-05-07 18:37 40.24408 -6.12778 34873 ft 415 kts 225°
2026-05-07 18:37 40.19981 -6.17604 34872 ft 414 kts 225°
2026-05-07 18:38 40.15555 -6.22420 34880 ft 413 kts 225°
2026-05-07 18:38 40.11159 -6.27196 34865 ft 413 kts 225°
2026-05-07 18:39 40.06734 -6.31982 34841 ft 412 kts 225°
2026-05-07 18:39 40.02318 -6.36763 34861 ft 411 kts 225°
2026-05-07 18:40 39.97909 -6.41539 34857 ft 411 kts 225°
2026-05-07 18:40 39.93513 -6.46291 34859 ft 410 kts 225°
2026-05-07 18:41 39.89113 -6.51025 34858 ft 410 kts 225°
2026-05-07 18:41 39.84713 -6.55743 34854 ft 409 kts 225°
2026-05-07 18:42 39.80353 -6.60418 34850 ft 408 kts 225°
2026-05-07 18:42 39.75980 -6.65099 34857 ft 407 kts 225°
2026-05-07 18:43 39.71611 -6.69767 34859 ft 406 kts 225°
2026-05-07 18:43 39.67248 -6.74428 34856 ft 406 kts 225°
2026-05-07 18:44 39.62891 -6.79082 34851 ft 405 kts 225°
2026-05-07 18:44 39.58530 -6.83718 34838 ft 405 kts 224°
2026-05-07 18:45 39.54183 -6.88334 34857 ft 403 kts 224°
2026-05-07 18:45 39.49840 -6.92934 34866 ft 403 kts 224°
2026-05-07 18:46 39.45505 -6.97521 34862 ft 402 kts 224°
2026-05-07 18:46 39.41205 -7.02068 34864 ft 401 kts 224°
2026-05-07 18:47 39.36880 -7.06640 34859 ft 401 kts 224°
2026-05-07 18:47 39.32561 -7.11192 34849 ft 400 kts 224°
2026-05-07 18:48 39.28243 -7.15728 34863 ft 400 kts 224°
2026-05-07 18:48 39.23926 -7.20246 34862 ft 399 kts 224°
2026-05-07 18:49 39.19259 -7.24206 34870 ft 405 kts 213°
2026-05-07 18:49 39.14303 -7.27635 34872 ft 404 kts 213°
2026-05-07 18:50 39.09350 -7.31058 34863 ft 404 kts 213°
2026-05-07 18:50 39.04430 -7.34447 34870 ft 403 kts 213°
2026-05-07 18:51 38.99488 -7.37861 34874 ft 403 kts 213°
2026-05-07 18:51 38.94550 -7.41274 34871 ft 403 kts 213°
2026-05-07 18:52 38.89617 -7.44678 34882 ft 402 kts 213°
2026-05-07 18:52 38.84681 -7.48065 34868 ft 402 kts 213°
2026-05-07 18:53 38.79756 -7.51442 34879 ft 401 kts 213°
2026-05-07 18:53 38.74837 -7.54802 34882 ft 400 kts 213°
2026-05-07 18:54 38.69920 -7.58164 34878 ft 400 kts 213°
2026-05-07 18:54 38.65007 -7.61517 34910 ft 400 kts 212°
2026-05-07 18:55 38.60103 -7.64863 34895 ft 399 kts 212°
2026-05-07 18:55 38.55236 -7.68178 34903 ft 399 kts 212°
2026-05-07 18:56 38.50310 -7.71522 34898 ft 398 kts 212°
2026-05-07 18:56 38.45446 -7.74818 34901 ft 398 kts 212°
2026-05-07 18:57 38.40550 -7.78134 34904 ft 398 kts 212°
2026-05-07 18:57 38.35664 -7.81440 34890 ft 398 kts 212°
2026-05-07 18:58 38.30771 -7.84746 34889 ft 398 kts 212°
2026-05-07 18:58 38.25878 -7.88045 34881 ft 398 kts 212°
2026-05-07 18:59 38.20983 -7.91343 34885 ft 398 kts 212°
2026-05-07 18:59 38.16090 -7.94631 34877 ft 398 kts 212°
2026-05-07 19:00 38.11197 -7.97915 34875 ft 398 kts 212°
2026-05-07 19:00 38.06300 -8.01192 34875 ft 398 kts 212°
2026-05-07 19:01 38.01401 -8.04467 34885 ft 398 kts 212°
2026-05-07 19:01 37.96508 -8.07735 34920 ft 398 kts 212°
2026-05-07 19:02 37.91640 -8.10984 34920 ft 398 kts 212°
2026-05-07 19:02 37.86741 -8.14246 34906 ft 398 kts 212°
2026-05-07 19:03 37.81840 -8.17504 34907 ft 398 kts 212°
2026-05-07 19:03 37.76936 -8.20763 34919 ft 398 kts 212°
2026-05-07 19:04 37.72036 -8.24013 34926 ft 398 kts 212°
2026-05-07 19:04 37.67160 -8.27245 34930 ft 398 kts 212°
2026-05-07 19:05 37.62263 -8.30484 34918 ft 398 kts 212°
2026-05-07 19:05 37.57361 -8.33719 34921 ft 398 kts 212°
2026-05-07 19:06 37.52459 -8.36943 34952 ft 397 kts 211°
2026-05-07 19:06 37.45123 -8.41768 34956 ft 396 kts 211°
2026-05-07 19:07 37.40244 -8.44971 34934 ft 395 kts 211°
2026-05-07 19:07 37.35365 -8.48165 34939 ft 395 kts 211°
2026-05-07 19:08 37.30501 -8.51350 34941 ft 394 kts 211°
2026-05-07 19:08 37.25634 -8.54537 34940 ft 394 kts 211°
2026-05-07 19:09 37.20774 -8.57711 34932 ft 394 kts 211°
2026-05-07 19:09 37.15914 -8.60880 34915 ft 394 kts 211°
2026-05-07 19:10 37.11869 -8.63517 34925 ft 393 kts 211°
2026-05-07 19:10 37.06220 -8.67187 34933 ft 393 kts 211°
2026-05-07 19:11 37.01357 -8.70338 34937 ft 393 kts 211°
2026-05-07 19:11 36.96499 -8.73485 34942 ft 393 kts 211°
2026-05-07 19:12 36.91640 -8.76631 34946 ft 393 kts 211°
2026-05-07 19:12 36.86785 -8.79766 34936 ft 393 kts 211°
2026-05-07 19:13 36.81920 -8.82902 34939 ft 393 kts 211°
2026-05-07 19:13 36.79486 -8.84472 35142 ft 394 kts 211°
2026-05-07 19:13 36.77051 -8.86042 35421 ft 393 kts 211°
2026-05-07 19:14 36.74624 -8.87606 35697 ft 392 kts 211°
2026-05-07 19:14 36.72203 -8.89163 35958 ft 391 kts 211°
2026-05-07 19:14 36.69786 -8.90715 36213 ft 390 kts 211°
2026-05-07 19:14 36.67370 -8.92264 36474 ft 389 kts 211°
2026-05-07 19:15 36.64962 -8.93805 36667 ft 388 kts 211°
2026-05-07 19:15 36.62562 -8.95343 36886 ft 388 kts 211°
2026-05-07 19:15 36.57761 -8.98423 36959 ft 388 kts 211°
2026-05-07 19:16 36.52998 -9.01471 36961 ft 387 kts 211°
2026-05-07 19:16 36.48201 -9.04540 36959 ft 387 kts 211°
2026-05-07 19:17 36.43412 -9.07599 36961 ft 387 kts 211°
2026-05-07 19:17 36.39427 -9.10140 36975 ft 387 kts 210°
2026-05-07 19:18 36.33821 -9.13700 36969 ft 387 kts 210°
2026-05-07 19:18 36.29033 -9.16738 36970 ft 386 kts 210°
2026-05-07 19:19 36.25053 -9.19266 36973 ft 386 kts 210°
2026-05-07 19:19 36.20271 -9.22301 36969 ft 386 kts 210°
2026-05-07 19:20 36.15480 -9.25329 36971 ft 386 kts 210°
2026-05-07 19:20 36.10691 -9.28352 36946 ft 386 kts 210°
2026-05-07 19:21 36.05907 -9.31372 36957 ft 386 kts 210°
2026-05-07 19:21 36.01118 -9.34392 36959 ft 386 kts 210°
2026-05-07 19:22 35.96327 -9.37406 36957 ft 386 kts 210°
2026-05-07 19:22 35.91492 -9.40306 36962 ft 387 kts 209°
2026-05-07 19:23 35.86652 -9.43118 36939 ft 387 kts 209°
2026-05-07 19:23 35.81785 -9.45956 36958 ft 387 kts 209°
2026-05-07 19:24 35.76932 -9.48812 36981 ft 386 kts 209°
2026-05-07 19:24 35.72081 -9.51673 36974 ft 386 kts 209°
2026-05-07 19:25 35.67228 -9.54512 36975 ft 386 kts 209°
2026-05-07 19:25 35.62376 -9.57339 36966 ft 386 kts 209°
2026-05-07 19:26 35.57554 -9.60146 36973 ft 386 kts 209°
2026-05-07 19:26 35.52714 -9.62987 36968 ft 385 kts 209°
2026-05-07 19:27 35.47911 -9.65907 36967 ft 385 kts 210°
2026-05-07 19:27 35.43120 -9.68847 36969 ft 385 kts 210°
2026-05-07 19:28 35.38318 -9.71766 36971 ft 385 kts 210°
2026-05-07 19:28 35.33516 -9.74667 36959 ft 385 kts 210°
2026-05-07 19:29 35.28709 -9.77579 36971 ft 385 kts 210°
2026-05-07 19:29 35.23904 -9.80495 36967 ft 385 kts 210°
2026-05-07 19:30 35.19103 -9.83404 36996 ft 385 kts 210°
2026-05-07 19:30 35.14300 -9.86306 36990 ft 385 kts 209°
2026-05-07 19:31 35.09504 -9.89202 36961 ft 384 kts 210°
2026-05-07 19:31 35.04704 -9.92090 36973 ft 384 kts 210°
2026-05-07 19:32 34.99912 -9.94970 36979 ft 384 kts 210°
2026-05-07 19:32 34.95156 -9.97834 36975 ft 384 kts 210°
2026-05-07 19:33 34.90367 -10.00718 36978 ft 384 kts 210°
2026-05-07 19:33 34.85578 -10.03593 36981 ft 384 kts 209°
2026-05-07 19:34 34.80780 -10.06452 36944 ft 384 kts 210°
2026-05-07 19:34 34.75985 -10.09311 36956 ft 383 kts 210°
2026-05-07 19:35 34.71201 -10.12180 36955 ft 383 kts 210°
2026-05-07 19:35 34.66444 -10.15024 36968 ft 383 kts 210°
2026-05-07 19:36 34.61656 -10.17876 36969 ft 383 kts 210°
2026-05-07 19:36 34.56865 -10.20724 37014 ft 383 kts 210°
2026-05-07 19:37 34.52080 -10.23573 36976 ft 383 kts 210°
2026-05-07 19:37 34.47294 -10.26407 36978 ft 382 kts 210°
2026-05-07 19:38 34.42514 -10.29238 36986 ft 382 kts 210°
2026-05-07 19:38 34.37736 -10.32061 36984 ft 382 kts 210°
2026-05-07 19:39 34.32959 -10.34895 36984 ft 382 kts 210°
2026-05-07 19:39 34.28183 -10.37719 36958 ft 382 kts 210°
2026-05-07 19:40 34.23408 -10.40536 36965 ft 382 kts 210°
2026-05-07 19:40 34.18633 -10.43347 36970 ft 382 kts 210°
2026-05-07 19:41 34.13859 -10.46161 36977 ft 382 kts 210°
2026-05-07 19:41 34.09083 -10.48957 36978 ft 382 kts 210°
2026-05-07 19:42 34.04340 -10.51745 36976 ft 381 kts 210°
2026-05-07 19:42 33.99562 -10.54554 36938 ft 381 kts 210°
2026-05-07 19:43 33.94782 -10.57345 36978 ft 382 kts 210°
2026-05-07 19:43 33.90009 -10.60134 37001 ft 381 kts 210°
2026-05-07 19:44 33.85241 -10.62913 36999 ft 381 kts 210°
2026-05-07 19:44 33.80471 -10.65691 36996 ft 380 kts 210°
2026-05-07 19:45 33.75709 -10.68472 36989 ft 380 kts 210°
2026-05-07 19:45 33.70948 -10.71242 36962 ft 380 kts 211°
2026-05-07 19:46 33.66187 -10.74003 36965 ft 380 kts 211°
2026-05-07 19:46 33.61423 -10.76762 36970 ft 380 kts 211°
2026-05-07 19:47 33.56696 -10.79495 36976 ft 380 kts 211°
2026-05-07 19:47 33.51943 -10.82254 36982 ft 380 kts 211°
2026-05-07 19:48 33.47187 -10.85013 36933 ft 380 kts 211°
2026-05-07 19:48 33.42433 -10.87754 36969 ft 379 kts 211°
2026-05-07 19:49 33.37682 -10.90492 36972 ft 379 kts 211°
2026-05-07 19:49 33.32931 -10.93229 36977 ft 379 kts 211°
2026-05-07 19:50 33.28182 -10.95967 37016 ft 379 kts 211°
2026-05-07 19:50 33.23438 -10.98692 37001 ft 378 kts 211°
2026-05-07 19:51 33.18728 -11.01394 36945 ft 378 kts 212°
2026-05-07 19:51 33.13985 -11.04107 36961 ft 377 kts 212°
2026-05-07 19:52 33.09247 -11.06816 36972 ft 377 kts 212°
2026-05-07 19:52 33.04517 -11.09523 36976 ft 377 kts 212°
2026-05-07 19:53 32.99783 -11.12231 36975 ft 377 kts 212°
2026-05-07 19:53 32.95057 -11.14934 36977 ft 377 kts 212°
2026-05-07 19:54 32.90317 -11.17630 36979 ft 377 kts 212°
2026-05-07 19:54 32.85583 -11.20320 36979 ft 377 kts 212°
2026-05-07 19:55 32.80881 -11.22997 36977 ft 377 kts 212°
2026-05-07 19:55 32.76151 -11.25681 36977 ft 377 kts 211°
2026-05-07 19:56 32.71420 -11.28364 36983 ft 377 kts 212°
2026-05-07 19:56 32.66689 -11.31044 36987 ft 377 kts 211°
2026-05-07 19:57 32.61956 -11.33722 36972 ft 376 kts 212°
2026-05-07 19:57 32.57232 -11.36391 36980 ft 376 kts 212°
2026-05-07 19:58 32.52515 -11.39051 36983 ft 375 kts 212°
2026-05-07 19:58 32.47801 -11.41717 36984 ft 375 kts 212°
2026-05-07 19:59 32.43114 -11.44356 36985 ft 375 kts 212°
2026-05-07 19:59 32.38397 -11.47001 36984 ft 375 kts 212°
2026-05-07 20:00 32.33685 -11.49645 36947 ft 374 kts 213°
2026-05-07 20:00 32.28975 -11.52290 36959 ft 374 kts 213°
2026-05-07 20:01 32.24269 -11.54936 36966 ft 374 kts 213°
2026-05-07 20:01 32.19555 -11.57571 36967 ft 375 kts 213°
2026-05-07 20:02 32.14871 -11.60182 36970 ft 375 kts 213°
2026-05-07 20:02 32.10157 -11.62816 36972 ft 375 kts 213°
2026-05-07 20:03 32.05441 -11.65448 36962 ft 376 kts 213°
2026-05-07 20:03 32.00703 -11.68097 36977 ft 377 kts 213°
2026-05-07 20:04 31.95952 -11.70737 36982 ft 377 kts 213°
2026-05-07 20:04 31.91211 -11.73367 36984 ft 376 kts 213°
2026-05-07 20:05 31.86477 -11.76000 36991 ft 376 kts 213°
2026-05-07 20:05 31.81742 -11.78631 36984 ft 376 kts 213°
2026-05-07 20:06 31.77029 -11.81245 36959 ft 378 kts 214°
2026-05-07 20:06 31.73035 -11.83460 36968 ft 379 kts 214°
2026-05-07 20:07 31.67477 -11.86527 36977 ft 379 kts 214°
2026-05-07 20:07 31.63504 -11.88720 36978 ft 379 kts 214°
2026-05-07 20:08 31.58727 -11.91357 36986 ft 379 kts 214°
2026-05-07 20:08 31.53951 -11.93993 36984 ft 379 kts 214°
2026-05-07 20:09 31.49172 -11.96617 36961 ft 381 kts 214°
2026-05-07 20:10 31.41944 -12.00585 36972 ft 383 kts 214°
2026-05-07 20:10 31.37125 -12.03232 36979 ft 382 kts 214°
2026-05-07 20:11 31.32300 -12.05875 37009 ft 382 kts 214°
2026-05-07 20:11 31.27496 -12.08512 37008 ft 381 kts 214°
2026-05-07 20:12 31.22694 -12.11144 37003 ft 381 kts 214°
2026-05-07 20:12 31.17892 -12.13764 36964 ft 381 kts 214°
2026-05-07 20:13 31.13077 -12.16385 36971 ft 382 kts 214°
2026-05-07 20:13 31.08286 -12.19000 36978 ft 382 kts 214°
2026-05-07 20:14 31.03460 -12.21623 36983 ft 382 kts 214°
2026-05-07 20:14 30.98624 -12.24255 36985 ft 383 kts 214°
2026-05-07 20:15 30.93799 -12.26882 36987 ft 383 kts 214°
2026-05-07 20:15 30.88938 -12.29523 36990 ft 388 kts 214°
2026-05-07 20:16 30.84038 -12.32177 36994 ft 388 kts 214°
2026-05-07 20:16 30.79170 -12.34803 36997 ft 388 kts 214°
2026-05-07 20:17 30.74278 -12.37447 36994 ft 388 kts 214°
2026-05-07 20:17 30.69381 -12.40094 36992 ft 387 kts 214°
2026-05-07 20:18 30.64491 -12.42737 37021 ft 387 kts 214°
2026-05-07 20:18 30.59607 -12.45374 36970 ft 387 kts 214°
2026-05-07 20:19 30.54713 -12.48014 36978 ft 388 kts 214°
2026-05-07 20:19 30.49808 -12.50643 36987 ft 388 kts 214°
2026-05-07 20:20 30.44899 -12.53273 36990 ft 388 kts 214°
2026-05-07 20:20 30.39999 -12.55916 36992 ft 389 kts 214°
2026-05-07 20:21 30.35090 -12.58550 36995 ft 389 kts 214°
2026-05-07 20:21 30.30161 -12.61191 36990 ft 392 kts 214°
2026-05-07 20:22 30.25198 -12.63851 36995 ft 393 kts 214°
2026-05-07 20:22 30.20233 -12.66492 36998 ft 393 kts 214°
2026-05-07 20:23 30.15294 -12.69115 37002 ft 393 kts 214°
2026-05-07 20:23 30.10328 -12.71761 37002 ft 392 kts 215°
2026-05-07 20:24 30.05524 -12.74664 37005 ft 388 kts 218°
2026-05-07 20:24 30.00852 -12.77760 37013 ft 387 kts 219°
2026-05-07 20:25 29.96175 -12.80841 37014 ft 387 kts 218°
2026-05-07 20:25 29.91456 -12.83868 37014 ft 388 kts 218°
2026-05-07 20:26 29.86735 -12.86864 37010 ft 388 kts 218°
2026-05-07 20:26 29.82011 -12.89865 37010 ft 387 kts 218°
2026-05-07 20:27 29.77287 -12.92871 37008 ft 387 kts 218°
2026-05-07 20:27 29.72582 -12.95861 36997 ft 391 kts 217°
2026-05-07 20:28 29.67814 -12.98886 37005 ft 391 kts 217°
2026-05-07 20:28 29.63041 -13.01915 37011 ft 391 kts 217°
2026-05-07 20:29 29.58273 -13.04940 37011 ft 391 kts 217°
2026-05-07 20:29 29.53502 -13.07962 37012 ft 391 kts 217°
2026-05-07 20:30 29.48720 -13.10979 37017 ft 391 kts 217°
2026-05-07 20:30 29.43945 -13.14000 37013 ft 394 kts 217°
2026-05-07 20:31 29.39128 -13.17039 36934 ft 396 kts 217°
2026-05-07 20:31 29.36698 -13.18570 35977 ft 402 kts 217°
2026-05-07 20:32 29.26126 -13.24481 32184 ft 419 kts 212°
2026-05-07 20:32 29.23475 -13.25889 31229 ft 420 kts 212°
2026-05-07 20:33 29.18180 -13.28757 29164 ft 424 kts 212°
2026-05-07 20:33 29.16375 -13.29745 28342 ft 425 kts 212°
2026-05-07 20:33 29.12872 -13.31666 26127 ft 421 kts 211°
2026-05-07 20:33 29.10213 -13.33128 24365 ft 422 kts 211°
2026-05-07 20:34 29.07570 -13.34580 22649 ft 421 kts 210°
2026-05-07 20:34 29.04960 -13.36002 21856 ft 409 kts 210°
2026-05-07 20:34 29.02420 -13.37379 21344 ft 399 kts 210°
2026-05-07 20:34 29.00765 -13.38279 20828 ft 398 kts 210°
2026-05-07 20:35 28.98276 -13.39641 20066 ft 396 kts 210°
2026-05-07 20:35 28.94992 -13.41441 19071 ft 394 kts 210°
2026-05-07 20:35 28.93323 -13.42355 18580 ft 393 kts 210°
2026-05-07 20:35 28.90863 -13.43700 17791 ft 391 kts 210°
2026-05-07 20:36 28.88448 -13.45017 17084 ft 388 kts 210°
2026-05-07 20:36 28.86022 -13.46335 16413 ft 385 kts 210°
2026-05-07 20:36 28.83613 -13.47643 15750 ft 381 kts 210°
2026-05-07 20:36 28.81222 -13.48942 15103 ft 379 kts 210°
2026-05-07 20:37 28.78851 -13.50230 14477 ft 377 kts 210°
2026-05-07 20:37 28.76489 -13.51510 13860 ft 375 kts 210°
2026-05-07 20:37 28.74137 -13.52784 13199 ft 374 kts 210°
2026-05-07 20:37 28.71789 -13.54061 12596 ft 372 kts 210°
2026-05-07 20:38 28.69456 -13.55328 11985 ft 371 kts 210°
2026-05-07 20:38 28.67133 -13.56587 11411 ft 368 kts 210°
2026-05-07 20:38 28.64868 -13.57809 11244 ft 352 kts 210°
2026-05-07 20:38 28.62707 -13.58973 11113 ft 336 kts 210°
2026-05-07 20:39 28.60642 -13.60088 10997 ft 322 kts 210°
2026-05-07 20:39 28.58654 -13.61161 10866 ft 309 kts 211°
2026-05-07 20:39 28.56744 -13.62192 10753 ft 298 kts 211°
2026-05-07 20:39 28.54898 -13.63187 10536 ft 290 kts 211°
2026-05-07 20:40 28.53085 -13.64167 10473 ft 288 kts 210°
2026-05-07 20:40 28.51261 -13.65109 10403 ft 289 kts 209°
2026-05-07 20:40 28.49416 -13.66022 10288 ft 289 kts 208°
2026-05-07 20:40 28.47568 -13.66917 10163 ft 289 kts 207°
2026-05-07 20:41 28.45601 -13.67488 10039 ft 296 kts 191°
2026-05-07 20:41 28.43510 -13.67467 9527 ft 309 kts 176°
2026-05-07 20:41 28.41375 -13.67117 9139 ft 308 kts 176°
2026-05-07 20:41 28.39282 -13.66770 8936 ft 299 kts 176°
2026-05-07 20:42 28.37301 -13.66440 8699 ft 285 kts 175°
2026-05-07 20:42 28.35390 -13.65883 8157 ft 285 kts 162°
2026-05-07 20:42 28.33643 -13.64875 7911 ft 278 kts 153°
2026-05-07 20:42 28.31931 -13.63793 7864 ft 283 kts 154°
2026-05-07 20:43 28.30201 -13.62722 7733 ft 283 kts 154°
2026-05-07 20:43 28.28475 -13.61661 7621 ft 282 kts 154°
2026-05-07 20:43 28.26748 -13.60599 7479 ft 282 kts 154°
2026-05-07 20:43 28.24995 -13.59617 7370 ft 278 kts 164°
2026-05-07 20:44 28.23163 -13.59177 7249 ft 264 kts 181°
2026-05-07 20:44 28.21357 -13.59293 7125 ft 258 kts 193°
2026-05-07 20:44 28.19581 -13.59559 7010 ft 258 kts 192°
2026-05-07 20:44 28.17803 -13.59816 6892 ft 257 kts 192°
2026-05-07 20:45 28.16048 -13.60066 6775 ft 257 kts 192°
2026-05-07 20:45 28.14271 -13.60318 6656 ft 257 kts 192°
2026-05-07 20:45 28.12496 -13.60571 6539 ft 257 kts 193°
2026-05-07 20:45 28.10802 -13.61115 6420 ft 250 kts 211°
2026-05-07 20:46 28.09364 -13.62154 6289 ft 242 kts 227°
2026-05-07 20:46 28.08120 -13.63429 6164 ft 242 kts 227°
2026-05-07 20:46 28.06867 -13.64699 6047 ft 241 kts 227°
2026-05-07 20:46 28.05617 -13.65957 6036 ft 241 kts 227°
2026-05-07 20:47 28.04358 -13.67223 6035 ft 241 kts 227°
2026-05-07 20:47 28.03103 -13.68485 6038 ft 241 kts 227°
2026-05-07 20:47 28.01851 -13.69747 6033 ft 241 kts 229°
2026-05-07 20:47 28.00838 -13.71211 6034 ft 234 kts 246°
2026-05-07 20:48 28.00269 -13.72901 5912 ft 228 kts 261°
2026-05-07 20:48 27.99902 -13.74644 5785 ft 228 kts 261°
2026-05-07 20:48 27.99528 -13.76367 5661 ft 228 kts 260°
2026-05-07 20:48 27.99146 -13.78110 5536 ft 228 kts 260°
2026-05-07 20:49 27.98763 -13.79852 5413 ft 228 kts 260°
2026-05-07 20:49 27.98387 -13.81601 5292 ft 228 kts 263°
2026-05-07 20:49 27.98434 -13.83343 5164 ft 220 kts 290°
2026-05-07 20:49 27.99219 -13.84799 5040 ft 218 kts 317°
2026-05-07 20:50 28.00533 -13.85640 4915 ft 221 kts 344°
2026-05-07 20:50 28.02067 -13.85813 4788 ft 221 kts 354°
2026-05-07 20:50 28.03606 -13.85904 4653 ft 222 kts 354°
2026-05-07 20:50 28.05146 -13.85996 4529 ft 222 kts 354°
2026-05-07 20:51 28.06694 -13.86091 4402 ft 222 kts 355°
2026-05-07 20:51 28.08238 -13.86187 4276 ft 222 kts 355°
2026-05-07 20:51 28.09785 -13.86283 4150 ft 223 kts 355°
2026-05-07 20:51 28.11331 -13.86379 4022 ft 222 kts 356°
2026-05-07 20:52 28.12854 -13.86473 3896 ft 222 kts 356°
2026-05-07 20:52 28.14400 -13.86569 3769 ft 223 kts 356°
2026-05-07 20:52 28.15949 -13.86665 3641 ft 222 kts 356°
2026-05-07 20:52 28.17489 -13.86761 3511 ft 217 kts 357°
2026-05-07 20:53 28.18966 -13.86880 3386 ft 210 kts 352°
2026-05-07 20:53 28.20413 -13.87095 3256 ft 210 kts 358°
2026-05-07 20:53 28.21851 -13.87133 3130 ft 203 kts
2026-05-07 20:53 28.23234 -13.87101 2998 ft 195 kts
2026-05-07 20:54 28.24578 -13.87058 2870 ft 190 kts
2026-05-07 20:54 28.25877 -13.87016 2743 ft 188 kts
2026-05-07 20:54 28.27177 -13.86973 2636 ft 187 kts
2026-05-07 20:54 28.28469 -13.86930 2552 ft 185 kts
2026-05-07 20:55 28.29757 -13.86888 2516 ft 184 kts
2026-05-07 20:55 28.31041 -13.86846 2492 ft 181 kts
2026-05-07 20:55 28.32245 -13.86806 2333 ft 166 kts
2026-05-07 20:55 28.33365 -13.86770 2123 ft 156 kts
2026-05-07 20:56 28.34413 -13.86735 1952 ft 144 kts
2026-05-07 20:56 28.35380 -13.86703 1748 ft 136 kts
2026-05-07 20:56 28.36325 -13.86672 1571 ft 135 kts
2026-05-07 20:56 28.37250 -13.86641 1389 ft 132 kts
2026-05-07 20:57 28.38171 -13.86611 1209 ft 134 kts
2026-05-07 20:57 28.39093 -13.86580 1040 ft 133 kts
2026-05-07 20:57 28.40032 -13.86549 858 ft 134 kts
2026-05-07 20:57 28.40979 -13.86518 699 ft 138 kts
2026-05-07 20:58 28.41932 -13.86485 478 ft 135 kts
2026-05-07 20:58 28.42859 -13.86458 288 ft 133 kts
2026-05-07 20:58 28.43793 -13.86430 146 ft 133 kts
2026-05-07 20:58 28.44691 -13.86398 66 ft 123 kts
2026-05-07 20:59 28.45405 -13.86371 84 ft 79 kts
2026-05-07 20:59 28.45652 -13.86378 90 ft 13 kts 317°
2026-05-07 20:59 28.45661 -13.86467 90 ft 9 kts 272°
2026-05-07 20:59 28.45662 -13.86505 93 ft 2 kts 272°
2026-05-07 21:00 28.45639 -13.86553 99 ft 13 kts 208°
2026-05-07 21:00 28.45535 -13.86561 96 ft 16 kts 182°
2026-05-07 21:00 28.45428 -13.86565 96 ft 15 kts 182°
2026-05-07 21:00 28.45371 -13.86633 98 ft 12 kts 267°
2026-05-07 21:01 28.45364 -13.86719 100 ft 10 kts 239°
2026-05-07 21:01 28.45303 -13.86737 99 ft 9 kts 181°
2026-05-07 21:01 28.45246 -13.86739 99 ft 8 kts 181°
2026-05-07 21:01 28.45222 -13.86775 101 ft 6 kts 263°
2026-05-07 21:02 28.45223 -13.86817 101 ft 5 kts 271°
2026-05-07 21:02 28.45224 -13.86836 100 ft 0 kts 271°
2026-05-07 21:02 28.45224 -13.86837 100 ft 0 kts 271°